Date_and_time,latitude,longitude,wind_speed,RelWindDirFrom,WindDirFrom,air_pressure,air_temperature,relative_humidity,Temp,platform_speed_wrt_ground,air_pressure_at_mean_sea_level,platform_orientation
2019-06-11 23:40,52.8668633333333,-98.2502383333333,1.4,2.3,107,993.04,11.8,40,8.33,0.1,1020.00,166.6
2019-06-11 23:50,52.866795,-98.2501733333333,1.3,1.9,134,993.00,12.0,42,7.94,0.0,1019.96,166.6
2019-06-12 00:00,52.8640316666667,-98.2751516666667,5.4,11.2,251,992.88,12.2,41,7.83,5.5,1019.82,191.8
2019-06-12 00:10,52.8550833333333,-98.3248183333333,10.6,11.2,241,992.71,10.5,50,7.61,11.3,1019.72,191.8
2019-06-12 00:20,52.84545,-98.3733233333333,9.4,10.8,227,992.71,10.1,47,7.83,11.1,1019.73,191.8
2019-06-12 00:30,52.8356533333333,-98.421685,8.0,8.8,221,992.69,10.5,44,8.14,11.1,1019.68,191.8
2019-06-12 00:40,52.8304116666667,-98.4491083333333,4.5,8.1,175,992.77,10.6,43,8.14,6.3,1019.76,191.8
2019-06-12 00:50,52.8289433333333,-98.4611233333333,4.8,5.1,134,992.81,10.3,50,8.27,2.7,1019.80,191.8
2019-06-12 01:00,52.8269883333333,-98.472835,4.0,5.0,146,992.83,10.2,54,8.31,2.6,1019.82,224.3
2019-06-12 01:10,52.8238316666667,-98.486695,4.9,11.5,190,992.86,9.8,60,8.33,3.2,1019.87,224.3
2019-06-12 01:20,52.8213083333333,-98.4960866666667,6.2,11.9,201,992.85,9.4,64,8.36,2.2,1019.86,224.3
2019-06-12 01:30,52.82136,-98.4958183333333,5.8,6.7,202,992.84,9.3,65,8.34,0.1,1019.79,224.3
2019-06-12 01:40,52.8199566666667,-98.4997233333333,7.2,15.1,214,992.79,9.5,65,8.36,1.0,1019.72,224.3
2019-06-12 01:50,52.79709,-98.5291866666667,15.5,16.9,216,992.36,9.3,67,8.45,10.4,1019.28,224.3
2019-06-12 02:00,52.7723133333333,-98.5578616666667,15.6,16.3,213,992.37,9.2,64,8.54,10.9,1019.37,240.9
2019-06-12 02:10,52.7470566666667,-98.58549,16.0,16.8,215,992.34,9.1,68,8.28,10.9,1019.36,240.9
2019-06-12 02:20,52.721685,-98.6128366666667,16.0,17.6,213,992.33,9.3,65,8.45,10.9,1019.33,240.9
2019-06-12 02:30,52.6975816666667,-98.6389966666667,15.2,16.9,208,992.44,9.7,62,8.83,10.4,1019.42,240.9
2019-06-12 02:40,52.6961666666667,-98.6404983333333,6.2,9.2,182,992.88,10.1,58,9.19,0.6,1019.86,240.9
2019-06-12 02:50,52.69645,-98.6407633333333,5.7,6.9,195,992.90,10.3,64,9.26,0.1,1019.88,240.9
2019-06-12 03:00,52.6965033333333,-98.640795,5.6,6.1,200,992.93,10.3,56,9.27,0.0,1019.93,233.0
2019-06-12 03:10,52.6964566666667,-98.640715,5.9,6.8,202,992.90,10.7,50,9.28,0.0,1019.90,233.0
2019-06-12 03:20,52.6964566666667,-98.6407466666667,6.7,7.2,211,992.95,10.7,50,9.30,0.0,1019.95,233.0
2019-06-12 03:30,52.6964433333333,-98.640695,7.0,7.3,212,992.97,10.8,51,9.32,0.0,1019.97,233.0
2019-06-12 03:40,52.69644,-98.6406966666667,6.6,8.1,213,993.00,10.7,55,9.33,0.0,1020.01,233.0
2019-06-12 03:50,52.696455,-98.6406983333333,7.5,8.3,215,993.01,10.8,49,9.33,0.0,1020.01,233.0
2019-06-12 04:00,52.6964333333333,-98.640665,7.1,8.9,223,993.02,10.7,54,9.34,0.0,1020.04,217.9
2019-06-12 04:10,52.6964266666667,-98.64065,8.6,9.7,230,992.95,10.6,56,9.33,0.0,1019.96,217.9
2019-06-12 04:20,52.696425,-98.640645,8.5,9.7,228,992.95,10.4,58,9.34,0.0,1019.95,217.9
2019-06-12 04:30,52.6964233333333,-98.6406383333333,8.6,9.6,229,992.96,10.3,57,9.36,0.0,1019.95,217.9
2019-06-12 04:40,52.6964233333333,-98.6406333333333,8.2,9.0,230,992.99,10.3,59,9.39,0.0,1019.97,217.9
2019-06-12 04:50,52.6964216666667,-98.64063,8.3,9.1,230,993.00,10.2,60,9.41,0.0,1019.99,217.9
2019-06-12 05:00,52.6964083333333,-98.6406016666667,9.1,10.4,234,993.05,10.2,58,9.40,0.0,1020.02,213.5
2019-06-12 05:10,52.6964133333333,-98.6405816666667,8.8,11.6,231,993.08,10.1,60,9.38,0.0,1020.05,213.5
2019-06-12 05:20,52.6964383333333,-98.640595,8.4,10.0,229,993.17,10.0,59,9.36,0.0,1020.14,213.5
2019-06-12 05:30,52.6963966666667,-98.6404833333333,9.6,11.3,234,993.19,9.9,58,9.34,0.0,1020.18,213.5
2019-06-12 05:40,52.696385,-98.640455,8.6,10.4,238,993.21,9.8,59,9.34,0.0,1020.19,213.5
2019-06-12 05:50,52.6963916666667,-98.640475,8.7,9.7,241,993.17,9.7,59,9.44,0.0,1020.16,213.5
2019-06-12 06:00,52.6963833333333,-98.6404516666667,10.4,12.2,243,993.13,9.7,58,9.48,0.0,1020.13,118.4
2019-06-12 06:10,52.69634,-98.6404233333333,10.5,12.1,246,993.16,9.4,60,9.48,0.0,1020.18,118.4
2019-06-12 06:20,52.696375,-98.6404266666667,10.6,11.9,246,993.18,9.3,61,9.48,0.0,1020.21,118.4
2019-06-12 06:30,52.69637,-98.640425,10.6,12.1,245,993.15,9.5,60,9.46,0.0,1020.17,118.4
2019-06-12 06:40,52.6963266666667,-98.6404083333333,10.3,12.2,248,993.20,9.4,61,9.44,0.0,1020.23,118.4
2019-06-12 06:50,52.69632,-98.6403666666667,11.1,12.5,247,993.16,9.2,61,9.41,0.0,1020.21,118.4
2019-06-12 07:00,52.6964033333333,-98.640395,11.2,13.4,245,993.16,9.2,63,9.38,0.0,1020.21,101.9
2019-06-12 07:10,52.6963216666667,-98.640325,11.6,14.1,245,993.11,9.2,62,9.35,0.0,1020.16,101.9
2019-06-12 07:20,52.696325,-98.6402516666667,11.7,13.9,246,993.07,9.2,61,9.33,0.0,1020.12,101.9
2019-06-12 07:30,52.6963983333333,-98.6402633333333,11.7,13.2,246,993.08,9.4,58,9.32,0.0,1020.13,101.9
2019-06-12 07:40,52.696365,-98.640275,11.7,14.0,246,993.14,9.4,57,9.32,0.0,1020.19,101.9
2019-06-12 07:50,52.69638,-98.6398583333333,13.4,16.4,244,993.12,9.4,57,9.32,0.1,1020.17,101.9
2019-06-12 08:00,52.6964066666667,-98.6396866666667,13.7,16.3,242,993.07,9.2,58,9.30,0.0,1020.15,90.0
2019-06-12 08:10,52.696405,-98.63966,12.6,15.0,242,993.16,9.1,60,9.31,0.0,1020.25,90.0
2019-06-12 08:20,52.6964316666667,-98.6396666666667,12.8,15.8,243,993.14,9.2,60,9.30,0.0,1020.22,90.0
2019-06-12 08:30,52.6964283333333,-98.6396533333333,14.2,16.8,244,993.06,9.1,59,9.29,0.0,1020.14,90.0
2019-06-12 08:40,52.6964133333333,-98.6396433333333,13.6,16.2,245,993.13,9.1,60,9.32,0.0,1020.22,90.0
2019-06-12 08:50,52.6964466666667,-98.6396533333333,13.3,16.1,247,993.15,9.0,61,9.36,0.0,1020.25,90.0
2019-06-12 09:00,52.6964933333333,-98.6396666666667,12.9,15.0,246,993.07,9.0,61,9.38,0.0,1020.17,77.3
2019-06-12 09:10,52.696495,-98.6397083333333,12.7,14.4,245,993.05,9.0,62,9.38,0.0,1020.14,77.3
2019-06-12 09:20,52.696435,-98.6396933333333,13.3,16.3,247,993.02,9.0,60,9.38,0.0,1020.11,77.3
2019-06-12 09:30,52.6963416666667,-98.6396216666667,12.9,15.7,251,993.03,8.9,63,9.40,0.0,1020.12,77.3
2019-06-12 09:40,52.6963016666667,-98.639595,12.9,15.9,252,993.02,8.9,65,9.40,0.0,1020.11,77.3
2019-06-12 09:50,52.696345,-98.6395916666667,13.2,15.7,250,992.99,8.7,66,9.40,0.0,1020.09,77.3
2019-06-12 10:00,52.6963933333333,-98.63961,13.3,15.6,249,992.92,8.8,67,9.41,0.0,1020.03,91.4
2019-06-12 10:10,52.696375,-98.639605,14.2,17.3,254,992.86,9.0,67,9.40,0.0,1019.96,91.4
2019-06-12 10:20,52.6963766666667,-98.6396183333333,14.7,16.9,253,992.79,8.9,68,9.38,0.0,1019.88,91.4
2019-06-12 10:30,52.69642,-98.6396233333333,14.7,17.3,247,992.65,8.9,70,9.37,0.0,1019.74,91.4
2019-06-12 10:40,52.6964166666667,-98.6396316666667,14.6,16.8,246,992.63,9.0,71,9.37,0.0,1019.72,91.4
2019-06-12 10:50,52.69088,-98.64587,17.0,23.2,246,992.48,9.1,71,9.36,2.4,1019.57,91.4
2019-06-12 11:00,52.6790433333333,-98.6586783333333,18.9,24.1,242,992.57,9.1,73,9.63,5.1,1019.65,213.5
2019-06-12 11:10,52.6750466666667,-98.6662366666667,16.7,18.5,247,992.74,9.2,72,9.91,2.2,1019.83,213.5
2019-06-12 11:20,52.670845,-98.6732316666667,16.3,18.6,247,992.84,9.2,74,9.92,2.1,1019.93,213.5
2019-06-12 11:30,52.6649683333333,-98.6798583333333,15.9,19.5,247,992.87,9.4,75,9.94,2.6,1019.95,213.5
2019-06-12 11:40,52.65486,-98.6918583333333,15.7,21.4,248,992.82,9.6,75,10.36,4.5,1019.90,213.5
2019-06-12 11:50,52.6549466666667,-98.6915833333333,13.1,16.9,253,992.93,9.8,73,10.89,0.1,1020.00,213.5
2019-06-12 12:00,52.6548633333333,-98.6918833333333,14.1,18.9,254,992.87,10.1,71,10.91,0.1,1019.91,217.3
2019-06-12 12:10,52.6430566666667,-98.7068716666667,17.4,23.2,247,992.62,10.7,68,11.09,5.4,1019.64,217.3
2019-06-12 12:20,52.64309,-98.7065983333333,9.6,13.8,252,993.11,10.9,67,11.53,0.1,1020.13,217.3
2019-06-12 12:30,52.6431516666667,-98.7066033333333,10.7,15.0,243,992.89,11.6,64,11.53,0.0,1019.86,217.3
2019-06-12 12:40,52.6430833333333,-98.7065983333333,11.1,13.7,244,992.85,12.1,62,11.52,0.0,1019.80,217.3
2019-06-12 12:50,52.643065,-98.70658,11.0,15.8,248,992.85,12.4,60,11.52,0.0,1019.77,217.3
2019-06-12 13:00,52.643115,-98.70662,11.1,15.6,245,992.74,12.8,58,11.56,0.0,1019.65,217.4
2019-06-12 13:10,52.6430733333333,-98.7065766666667,10.4,14.6,250,992.79,13.2,56,11.59,0.0,1019.67,217.4
2019-06-12 13:20,52.643105,-98.70662,10.0,12.9,246,992.75,13.5,54,11.59,0.0,1019.61,217.4
2019-06-12 13:30,52.646255,-98.703025,9.7,14.1,256,992.72,13.8,52,11.59,1.4,1019.55,217.4
2019-06-12 13:40,52.653175,-98.6592033333333,3.4,9.5,230,992.84,14.0,53,11.40,9.9,1019.66,217.4
2019-06-12 13:50,52.6500233333333,-98.608195,6.9,8.3,177,992.70,13.8,57,10.31,11.2,1019.51,217.4
2019-06-12 14:00,52.64703,-98.55736,7.3,9.3,183,992.57,13.4,57,9.13,11.2,1019.38,117.5
2019-06-12 14:10,52.6439766666667,-98.5066366666667,7.0,8.4,169,992.44,12.7,60,8.66,11.1,1019.26,117.5
2019-06-12 14:20,52.6407916666667,-98.456035,6.6,8.0,168,992.47,12.3,62,8.10,11.1,1019.28,117.5
2019-06-12 14:30,52.6376783333333,-98.4056633333333,6.2,7.4,162,992.47,11.5,66,7.62,11.1,1019.29,117.5
2019-06-12 14:40,52.6362766666667,-98.3747466666667,5.5,8.8,215,992.42,12.3,61,7.50,6.8,1019.18,117.5
2019-06-12 14:50,52.6369516666667,-98.3624283333333,8.5,9.6,242,992.30,16.1,49,7.27,2.7,1018.87,117.5
2019-06-12 15:00,52.6369133333333,-98.3498716666667,7.9,9.3,247,992.36,16.4,49,7.20,2.7,1018.89,94.8
2019-06-12 15:10,52.63709,-98.336915,8.1,9.7,257,992.37,15.8,51,6.99,2.8,1018.91,94.8
2019-06-12 15:20,52.6375366666667,-98.3240633333333,7.2,11.4,258,992.31,13.7,55,6.99,2.8,1018.94,94.8
2019-06-12 15:30,52.6375866666667,-98.32406,9.6,11.1,268,992.15,12.0,58,7.07,0.0,1018.84,94.8
2019-06-12 15:40,52.6375766666667,-98.3241533333333,10.6,12.0,265,992.06,12.0,55,7.12,0.0,1018.77,94.8
2019-06-12 15:50,52.6295166666667,-98.2954583333333,4.6,15.5,238,992.09,12.0,57,7.06,6.9,1018.82,94.8
2019-06-12 16:00,52.6197916666667,-98.247225,4.0,5.3,162,992.11,11.3,61,6.86,11.1,1018.91,94.6
2019-06-12 16:10,52.609675,-98.1992883333333,4.6,6.0,153,992.08,10.7,65,7.13,11.1,1018.92,94.6
2019-06-12 16:20,52.5997766666667,-98.154655,4.3,6.7,165,992.09,10.5,65,6.82,10.4,1018.98,94.6
2019-06-12 16:30,52.597555,-98.1468,6.9,12.2,258,991.95,11.1,61,6.81,1.9,1018.77,94.6
2019-06-12 16:40,52.5977983333333,-98.1457983333333,7.7,11.1,271,991.83,11.3,62,6.81,0.2,1018.45,94.6
2019-06-12 16:50,52.601365,-98.1089333333333,1.1,9.4,257,991.77,11.1,61,6.92,8.2,1018.39,94.6
2019-06-12 17:00,52.606675,-98.0593516666667,4.5,8.1,133,991.64,10.5,66,6.76,11.0,1018.31,97.4
2019-06-12 17:10,52.611945,-98.0100783333333,4.1,5.3,127,991.61,10.1,67,6.53,10.9,1018.39,97.4
2019-06-12 17:20,52.6176316666667,-97.960715,4.3,6.1,115,991.59,10.1,68,6.58,11.0,1018.46,97.4
2019-06-12 17:30,52.62309,-97.9111766666667,4.2,5.9,124,991.51,10.1,67,6.35,11.0,1018.38,97.4
2019-06-12 17:40,52.6286083333333,-97.861565,5.3,6.8,140,991.38,10.1,68,6.41,11.0,1018.24,97.4
2019-06-12 17:50,52.6335433333333,-97.811705,5.7,7.0,153,991.21,10.2,67,6.40,11.0,1018.09,97.4
2019-06-12 18:00,52.6373016666667,-97.7830383333333,5.3,8.5,200,991.19,10.7,65,6.82,6.4,1018.09,89.7
2019-06-12 18:10,52.6393466666667,-97.7722533333333,7.9,9.1,224,991.10,12.4,59,7.33,2.5,1017.91,89.7
2019-06-12 18:20,52.6408066666667,-97.76089,7.7,9.1,222,990.90,12.7,59,7.58,2.5,1017.66,89.7
2019-06-12 18:30,52.64186,-97.7483666666667,8.3,10.1,221,990.72,13.0,57,7.77,2.8,1017.46,89.7
2019-06-12 18:40,52.6417233333333,-97.733175,9.1,12.5,223,990.55,12.1,57,7.91,3.3,1017.34,89.7
2019-06-12 18:50,52.6418216666667,-97.7332233333333,10.8,11.9,236,990.40,11.7,57,7.94,0.0,1017.23,89.7
2019-06-12 19:00,52.641805,-97.7332333333333,11.0,12.4,236,990.24,11.6,58,7.88,0.0,1017.10,85.8
2019-06-12 19:10,52.6417583333333,-97.7331633333333,11.8,13.6,239,990.08,12.0,54,8.02,0.0,1016.91,85.8
2019-06-12 19:20,52.6239566666667,-97.7292533333333,16.3,20.3,223,989.88,12.1,55,8.11,6.5,1016.69,85.8
2019-06-12 19:30,52.5941433333333,-97.7205016666667,19.4,21.0,216,989.74,12.4,52,7.84,10.9,1016.54,85.8
2019-06-12 19:40,52.5641716666667,-97.7125383333333,17.9,19.9,220,989.75,12.9,51,7.25,10.9,1016.52,85.8
2019-06-12 19:50,52.5340783333333,-97.7058483333333,17.4,19.9,221,989.75,12.9,50,7.27,10.9,1016.49,85.8
2019-06-12 20:00,52.5039783333333,-97.69804,16.3,18.6,219,989.67,13.6,48,7.61,11.0,1016.31,114.9
2019-06-12 20:10,52.473705,-97.69134,16.1,19.8,211,989.54,13.1,52,8.10,11.0,1016.17,114.9
2019-06-12 20:20,52.44399,-97.681965,20.3,21.8,199,989.27,12.1,59,8.06,10.9,1015.93,114.9
2019-06-12 20:30,52.4143016666667,-97.6716316666667,19.5,21.8,198,989.24,11.5,62,8.06,10.9,1015.97,114.9
2019-06-12 20:40,52.3842683333333,-97.664615,21.1,23.7,200,988.94,12.3,54,8.05,10.9,1015.65,114.9
2019-06-12 20:50,52.35424,-97.6576116666667,19.2,23.2,198,988.96,12.6,53,8.01,10.9,1015.66,114.9
2019-06-12 21:00,52.3241433333333,-97.6509666666667,20.6,23.8,199,988.85,13.1,54,8.00,10.9,1015.50,165.5
2019-06-12 21:10,52.29404,-97.64425,21.6,23.5,199,988.77,13.6,53,7.91,10.9,1015.39,165.5
2019-06-12 21:20,52.2721433333333,-97.63881,18.8,23.3,205,988.95,14.6,49,8.09,8.0,1015.52,165.5
2019-06-12 21:30,52.2653033333333,-97.6358716666667,14.0,15.1,213,989.08,14.5,51,8.58,2.5,1015.63,165.5
2019-06-12 21:40,52.2584783333333,-97.632975,14.5,15.3,215,988.95,14.9,50,8.76,2.5,1015.47,165.5
2019-06-12 21:50,52.2515583333333,-97.6310233333333,14.6,15.7,216,988.84,15.2,50,8.95,2.5,1015.32,165.5
2019-06-12 22:00,52.2419233333333,-97.630855,13.3,16.8,220,988.74,15.5,49,9.09,3.5,1015.22,171.1
2019-06-12 22:10,52.2420283333333,-97.6303333333333,11.8,13.1,231,988.76,15.5,50,9.22,0.1,1015.29,171.1
2019-06-12 22:20,52.2420466666667,-97.6303333333333,12.8,13.7,231,988.55,15.8,49,9.26,0.0,1015.09,171.1
2019-06-12 22:30,52.23999,-97.6518316666667,16.3,22.1,237,988.15,15.7,51,9.33,4.8,1014.65,171.1
2019-06-12 22:40,52.23672,-97.70115,20.4,22.2,239,987.73,15.7,52,9.50,10.9,1014.20,171.1
2019-06-12 22:50,52.23069,-97.749115,19.5,20.9,235,987.69,16.1,51,9.74,10.8,1014.12,171.1
2019-06-12 23:00,52.2243766666667,-97.79756,18.3,19.6,235,987.65,16.9,45,10.60,10.9,1014.02,192.3
2019-06-12 23:10,52.20496,-97.8241533333333,17.9,20.7,213,987.57,16.7,47,11.32,9.1,1013.90,192.3
2019-06-12 23:20,52.1987133333333,-97.829475,10.9,13.5,208,987.91,17.6,39,11.65,2.5,1014.21,192.3
2019-06-12 23:30,52.19285,-97.8343883333333,9.6,10.9,206,987.84,17.8,38,11.58,2.4,1014.11,192.3
2019-06-12 23:40,52.1868633333333,-97.8391066666667,8.0,10.7,206,987.82,18.7,32,11.98,2.4,1014.03,192.3
2019-06-12 23:50,52.17323,-97.8518333333333,12.3,16.1,205,987.49,18.2,34,12.04,5.7,1013.70,192.3
